Theta_e
315 315 315 314 315 316 316 316 316 317 317 317 317 315 314 314 314 317 317 318 318 316 316 317 317 317 317 318 321 323 323 323 323 322 326 330 333 334 335 336 337 340 341 340 339 340 340 338 337 336 335 336 335 334 331 327 328 330 331 332 331 332 329 323 323 326 325 323 322 324 327 329 329 329 329 329 329 328 325 323 319 316 315 317 318 319
316 315 316 316 316 318 317 317 318 318 318 317 317 315 314 314 314 317 318 318 319 317 317 317 317 317 318 318 319 322 323 323 323 324 328 330 330 332 334 335 335 338 340 340 340 340 340 338 337 337 335 336 335 333 329 327 329 330 331 330 328 329 326 319 321 323 322 324 325 327 330 329 328 327 328 329 327 321 315 314 314 314 316 318 317 317
316 315 316 317 317 318 318 318 318 318 318 317 315 315 314 314 315 317 318 319 318 318 318 317 317 317 319 319 318 322 325 324 323 325 328 328 328 330 334 336 336 339 339 339 340 340 340 339 338 337 336 335 334 332 327 327 330 331 329 326 324 325 321 319 321 323 326 328 328 330 330 329 328 329 328 327 324 319 313 312 315 315 316 320 320 317
315 314 317 317 317 319 318 318 318 317 317 317 315 314 313 315 315 315 317 319 318 318 318 318 318 319 319 320 319 324 327 326 325 325 327 328 328 330 333 336 336 338 339 340 340 339 339 338 337 337 336 335 334 332 327 327 331 330 326 323 323 321 319 321 321 324 330 332 330 330 330 330 329 326 324 323 322 321 319 319 321 319 317 323 323 321
316 316 317 317 317 318 317 317 317 315 315 316 316 314 314 316 315 315 317 319 319 318 319 319 318 317 319 319 320 325 326 326 326 326 327 328 329 331 334 336 337 338 340 340 338 338 337 336 337 337 337 336 335 332 327 328 330 328 325 325 323 321 321 320 320 325 332 333 329 329 329 325 321 319 320 322 322 322 321 322 321 318 319 324 324 323
315 318 318 316 316 316 315 316 316 315 314 314 316 316 316 317 317 317 318 319 318 317 318 318 314 314 317 320 321 324 326 326 328 328 328 328 330 332 335 336 337 338 340 339 336 337 337 337 337 337 338 337 335 333 329 330 331 327 327 327 322 322 323 322 324 329 331 329 325 323 321 318 318 321 323 324 323 322 321 321 321 320 321 324 324 325
315 317 317 316 316 315 314 315 316 316 314 313 315 316 316 318 318 318 318 318 316 315 319 318 314 313 316 320 321 325 327 326 328 328 328 329 330 332 335 335 335 336 337 336 335 337 335 337 338 337 337 336 335 336 333 331 333 331 330 328 325 326 326 326 329 330 328 326 324 323 322 322 324 326 326 325 324 323 321 320 320 320 321 323 324 325
315 317 316 315 315 315 314 314 316 316 313 314 317 316 316 317 318 319 318 317 316 317 319 319 316 313 314 319 321 323 325 323 324 326 327 329 330 331 334 334 333 333 335 334 335 338 336 337 339 336 335 335 334 336 335 332 332 333 332 331 330 328 326 327 330 331 328 327 327 328 327 327 327 326 324 323 322 320 319 320 320 320 323 324 324 324
316 316 316 315 315 315 314 315 317 316 314 315 319 318 316 316 318 318 317 317 317 317 316 318 317 314 314 320 322 323 323 321 322 325 326 329 329 332 333 332 333 333 334 333 334 337 336 336 337 335 335 335 334 334 334 332 328 329 332 332 331 328 324 325 326 327 328 328 328 329 328 328 326 322 321 321 319 316 318 322 322 322 323 323 324 324
316 315 315 315 314 315 316 316 317 316 315 317 319 318 316 317 317 318 317 316 317 316 315 317 317 314 314 318 320 322 322 321 323 326 326 328 329 331 331 331 332 332 332 332 332 335 334 333 336 336 337 335 333 332 332 330 325 324 328 329 329 328 326 325 325 325 327 328 329 329 328 326 322 320 321 320 317 316 318 322 323 322 322 323 324 324
316 316 316 314 315 316 317 317 317 316 315 317 319 317 317 317 318 318 317 316 316 316 315 317 317 314 313 318 321 322 322 323 326 327 325 327 329 331 331 332 334 333 334 334 333 334 334 335 337 337 337 336 334 332 329 329 327 326 328 328 329 328 326 325 326 327 327 326 327 329 327 324 320 319 321 321 318 318 319 321 322 323 323 324 323 322
315 315 315 315 316 317 317 316 317 316 316 317 317 316 316 315 316 316 315 316 316 315 316 316 318 315 314 317 321 322 323 325 325 325 325 327 330 330 332 333 334 334 336 336 333 333 334 336 337 335 334 334 333 330 329 331 330 330 330 330 329 327 326 324 322 325 326 324 323 324 325 323 320 318 319 321 321 321 321 321 322 323 324 323 322 321
315 314 315 315 316 316 316 315 315 315 315 316 316 316 314 313 314 314 314 314 315 315 317 317 318 316 315 319 323 323 324 324 324 324 324 327 329 329 331 332 332 332 334 335 334 333 333 332 331 331 329 328 328 328 330 332 331 329 329 329 329 328 326 324 320 321 324 322 318 320 324 323 320 321 321 321 322 322 322 321 321 322 323 322 321 319
314 315 314 315 316 316 316 315 314 314 314 316 316 315 314 314 315 315 314 314 314 315 317 318 318 315 315 321 325 324 324 323 324 326 326 327 326 327 328 329 330 332 333 334 334 334 334 330 327 327 327 327 329 329 330 331 330 328 328 328 327 326 324 323 321 321 321 321 320 321 324 322 321 323 323 321 322 322 321 320 320 322 322 321 320 315
313 314 315 315 315 316 315 315 316 316 315 315 316 316 315 315 315 315 314 314 314 315 317 318 318 315 315 321 325 325 325 324 324 326 327 328 326 325 325 327 330 332 332 333 334 335 334 331 328 327 327 329 330 329 329 329 328 327 327 326 326 324 322 322 322 323 322 322 324 323 321 323 324 323 322 321 321 319 319 320 321 321 320 319 316 311
313 314 315 315 316 316 315 315 317 317 315 316 316 316 315 316 315 314 314 315 314 314 316 317 317 317 319 323 325 326 326 324 323 325 325 326 327 326 326 327 330 332 333 334 335 335 333 330 328 327 326 328 328 327 328 327 327 327 326 326 325 323 322 322 322 324 322 322 324 322 321 325 326 323 321 321 318 316 316 319 320 319 318 317 312 307
313 315 317 316 316 316 316 316 317 316 316 316 315 314 316 318 317 314 315 317 315 313 315 316 317 319 320 322 324 324 325 325 324 325 326 328 329 328 328 329 331 333 333 334 334 332 330 328 327 326 325 326 326 326 326 326 326 325 324 324 324 323 323 323 324 325 323 321 321 322 324 327 326 322 320 318 315 312 313 316 318 318 318 315 311 306
315 315 317 316 315 316 317 317 317 317 317 316 315 316 317 318 317 316 315 315 315 313 313 314 316 316 317 320 322 323 325 326 325 327 329 330 330 329 330 330 330 332 332 333 332 331 330 328 327 325 324 324 324 325 325 327 327 324 323 323 323 323 323 323 324 325 325 324 322 322 325 326 325 323 318 312 310 309 311 315 317 317 317 314 310 307
317 314 316 316 315 316 317 316 315 317 317 316 317 318 317 316 314 315 314 314 315 314 312 314 315 315 315 319 322 323 326 327 327 327 328 329 331 331 331 330 330 331 331 332 332 330 330 329 328 328 327 325 324 325 326 327 328 326 324 324 323 324 324 323 322 324 326 326 324 323 324 324 324 324 318 310 308 308 310 315 316 314 314 312 310 308
317 316 316 317 315 316 316 314 313 314 316 316 316 317 317 316 315 315 314 314 314 314 314 314 314 316 319 322 322 322 326 327 326 327 327 329 331 331 331 330 329 331 331 330 330 329 329 329 328 329 328 326 325 325 325 326 328 327 326 325 324 324 324 323 322 323 325 326 324 322 323 324 324 325 321 312 307 307 310 314 314 311 310 311 312 310
317 317 316 317 316 315 315 315 314 314 315 314 314 314 316 316 316 316 316 315 313 313 314 313 314 320 324 326 324 324 326 327 326 327 328 329 330 330 330 330 329 329 329 328 328 328 327 327 328 328 328 327 325 323 322 323 325 326 327 326 326 326 325 324 323 322 323 324 323 321 322 322 323 325 324 316 309 308 309 310 310 308 310 313 314 313
316 317 316 317 316 314 314 315 315 316 316 316 315 315 315 315 315 315 315 315 315 314 314 313 316 323 325 324 326 326 326 326 326 326 327 329 329 329 329 329 328 327 327 327 327 327 326 326 326 327 327 327 324 321 321 321 322 325 328 326 326 327 326 325 325 325 324 323 321 321 320 320 321 323 325 320 313 311 310 308 308 307 311 318 317 314
317 317 316 316 316 315 315 315 315 316 315 316 316 315 316 316 315 314 313 315 314 314 315 313 316 322 323 322 325 327 325 326 326 325 327 328 328 328 328 327 327 327 327 327 327 327 326 326 326 326 326 326 325 324 325 325 325 325 325 326 327 327 327 327 327 328 328 325 323 322 321 321 322 323 325 323 318 316 312 309 310 308 311 320 320 316
317 316 315 316 316 316 316 315 315 315 314 315 316 316 316 316 316 316 315 316 315 314 315 313 314 321 323 322 325 327 326 326 326 325 326 327 328 327 327 327 327 327 327 327 328 328 327 326 327 327 327 326 326 327 327 327 327 323 319 323 328 329 328 328 329 329 329 328 326 326 324 324 324 324 324 324 322 321 315 310 311 310 311 318 319 318
316 316 316 316 317 317 317 316 315 315 314 314 315 316 316 315 318 318 317 317 316 315 315 314 315 321 323 322 324 325 326 327 327 326 326 326 326 327 327 327 327 327 327 327 328 327 327 327 327 327 328 328 328 328 328 328 328 326 323 325 328 329 329 329 329 328 328 328 327 327 327 326 326 326 326 325 324 323 320 314 311 310 313 318 318 318
316 316 316 317 318 318 318 317 315 314 315 315 315 316 316 315 316 317 316 316 315 316 315 314 320 323 323 322 323 323 326 328 328 326 325 325 326 326 327 327 326 326 326 326 327 326 326 326 327 327 327 328 327 328 328 328 328 329 328 328 328 328 328 328 328 328 327 327 328 327 328 328 328 328 328 326 324 323 323 320 315 311 314 319 319 318
317 317 317 316 317 317 316 316 315 315 316 316 314 315 316 316 317 317 315 314 315 316 314 315 322 324 323 323 324 324 326 328 327 327 325 325 326 326 326 326 326 326 325 325 326 325 325 325 325 326 326 326 326 327 327 327 327 327 327 327 327 327 328 327 327 327 327 327 327 327 327 328 328 328 328 327 326 324 324 323 320 316 315 318 319 319
316 316 316 317 316 315 315 314 315 314 315 316 315 315 316 316 318 317 316 317 318 316 316 319 324 325 323 324 323 324 325 325 327 328 327 325 326 326 326 325 325 325 324 325 324 324 324 324 324 324 325 325 325 325 325 325 326 326 326 326 326 327 327 327 327 327 327 327 326 327 327 327 328 328 327 327 326 324 324 323 323 321 320 319 319 319
317 316 317 316 315 314 314 314 314 314 314 316 316 318 318 318 319 318 318 320 319 317 319 324 325 324 323 322 322 323 324 324 326 327 326 325 325 325 324 324 323 323 323 323 322 322 322 322 322 323 323 324 325 324 325 325 325 325 325 325 326 326 325 325 326 326 326 326 326 327 327 327 327 327 327 326 326 324 323 323 324 323 322 320 320 319
317 317 317 316 315 315 314 314 314 313 314 315 315 317 318 318 319 320 321 322 321 321 323 324 323 322 320 319 319 319 321 322 324 324 323 324 323 323 323 322 321 321 321 320 321 321 321 320 320 320 320 321 322 323 324 324 324 324 324 324 324 324 324 324 324 325 324 325 326 326 326 326 326 326 326 325 325 325 324 323 323 322 322 321 321 320
318 317 317 316 314 315 315 314 313 314 313 314 314 315 317 318 318 318 320 322 322 323 323 322 321 319 317 317 318 319 320 321 322 322 322 322 322 322 321 320 319 318 318 318 317 317 318 318 318 318 318 318 319 320 321 321 322 322 322 322 322 323 323 323 323 323 323 323 323 324 325 325 325 325 325 325 325 324 324 323 323 323 322 322 321 320
317 316 316 316 315 314 314 313 313 313 313 313 314 314 316 317 316 316 318 320 321 322 321 320 319 317 316 316 317 317 317 316 315 316 318 318 319 319 319 318 318 317 316 315 314 314 314 314 315 315 315 315 315 316 317 317 318 318 318 318 319 320 321 322 322 323 323 322 322 322 323 323 323 323 323 324 324 324 323 323 323 323 321 321 320 319
316 317 316 316 315 315 314 313 313 314 314 314 314 315 315 316 314 315 316 316 317 319 320 319 318 316 315 314 312 310 310 309 309 310 310 310 311 313 313 312 312 313 313 312 311 311 311 311 312 312 312 312 313 313 313 313 314 314 314 314 315 316 317 318 319 320 321 321 321 321 322 322 322 322 322 322 323 323 323 323 323 323 321 320 320 320
317 317 317 316 316 316 316 315 315 316 315 314 314 315 316 315 313 314 315 314 314 315 316 317 316 315 314 312 309 307 306 306 305 305 306 306 305 306 307 307 307 308 308 308 307 307 308 308 309 309 309 309 310 310 311 311 312 312 312 312 312 313 313 313 314 315 316 317 317 317 318 318 319 320 321 322 322 322 322 323 323 323 322 321 321 320
316 317 316 315 315 316 316 317 318 317 315 313 313 313 314 314 313 313 313 313 313 314 315 315 314 313 312 310 307 305 304 303 302 302 303 303 303 302 302 303 304 304 304 304 304 305 306 306 306 306 307 307 307 308 308 309 310 310 311 311 311 312 312 313 313 312 313 313 313 313 313 313 314 315 316 318 319 320 321 321 322 322 321 320 320 320
316 316 315 314 315 315 316 317 318 316 313 312 312 312 313 314 313 313 313 313 313 313 313 312 310 310 309 307 305 304 303 302 302 301 301 302 302 302 301 301 301 301 301 301 302 303 304 304 304 304 305 305 305 306 306 307 308 309 309 309 310 311 311 312 312 312 312 312 312 312 312 312 312 312 313 314 315 316 317 319 319 320 319 318 317 317
315 315 314 315 315 315 315 316 315 314 313 313 312 311 312 312 313 313 313 312 312 313 312 309 307 307 307 306 305 304 304 304 303 302 302 302 302 302 302 301 301 301 301 301 301 302 302 302 303 303 303 303 303 303 304 304 306 307 308 308 308 309 310 310 310 310 311 312 312 312 312 312 312 312 312 313 312 313 313 315 317 317 317 317 316 316
313 314 314 315 314 313 313 314 315 315 315 314 311 311 311 310 311 312 313 311 311 312 312 309 308 308 308 307 306 306 307 307 305 304 304 303 303 303 303 302 302 302 301 301 302 302 302 302 302 303 302 302 302 303 303 303 304 305 306 306 307 307 308 309 308 308 309 309 310 310 311 311 312 312 312 312 312 312 312 313 314 315 316 316 316 316
312 313 313 313 313 312 312 313 313 314 313 312 310 310 309 309 310 311 312 311 310 311 312 311 310 310 310 309 308 308 309 309 306 305 305 304 304 304 303 303 303 302 302 301 300 301 302 302 302 302 302 301 300 301 301 301 301 302 303 304 305 305 307 308 307 307 307 307 307 308 309 310 310 311 311 312 312 312 312 312 313 313 314 314 314 315
312 312 311 311 311 311 311 312 312 311 310 310 309 308 308 308 309 311 312 311 309 309 310 310 311 311 310 310 310 309 309 308 306 305 304 304 303 303 302 302 302 302 302 301 299 298 300 301 301 301 301 300 298 297 297 298 299 300 301 303 303 304 305 306 306 305 305 305 306 306 307 308 308 309 310 311 311 312 312 312 312 313 313 313 313 314
311 310 311 311 311 311 311 312 312 309 308 308 308 307 307 308 309 310 310 308 307 308 309 308 309 309 309 310 309 307 306 306 305 304 303 303 303 302 302 302 301 301 301 300 298 297 298 299 300 300 299 298 297 296 296 297 297 298 299 301 302 303 304 304 304 304 303 303 304 305 305 306 307 308 308 309 309 310 311 311 312 312 312 312 312 312
309 309 309 310 310 311 311 311 311 310 307 307 307 306 306 309 309 308 308 307 307 307 307 307 307 307 307 307 306 305 304 304 304 303 303 302 302 302 301 301 300 300 300 299 298 297 296 298 299 299 297 297 296 296 296 296 296 296 297 298 301 302 302 302 303 302 301 301 303 303 304 304 304 304 305 306 307 308 309 310 311 311 312 312 311 311
308 308 308 309 309 309 309 311 312 310 306 306 307 306 306 308 307 306 306 307 307 306 307 307 306 306 306 305 304 304 304 303 302 302 302 301 301 301 300 300 300 300 299 299 299 298 297 298 299 298 297 297 297 296 296 296 296 296 296 297 299 299 299 299 300 300 300 301 301 300 300 301 301 302 303 304 304 306 307 308 310 311 311 311 311 311
308 308 308 308 308 308 309 309 309 308 306 306 307 306 306 306 306 306 306 306 306 306 306 306 305 305 305 305 304 304 303 302 302 301 301 301 300 300 299 299 299 299 298 299 299 298 297 298 298 298 298 298 298 297 297 297 297 296 296 297 297 297 296 297 298 299 300 300 299 299 299 300 301 301 302 303 304 304 306 307 308 309 310 311 311 311
307 307 308 307 306 307 307 306 306 306 306 306 306 306 305 305 305 305 306 306 305 306 305 305 304 304 304 304 303 303 302 301 301 300 300 301 300 299 299 299 299 299 298 299 299 298 297 298 299 299 299 299 299 298 298 298 298 298 298 298 297 297 297 297 298 298 298 298 299 300 300 301 301 301 302 303 304 304 305 305 306 307 308 309 310 310
306 307 307 307 306 306 306 305 305 306 305 305 305 305 304 305 305 305 305 304 304 303 303 303 302 302 301 302 302 301 301 300 300 300 300 300 299 299 299 299 299 299 299 299 299 298 298 298 299 299 299 299 299 299 299 299 299 299 299 299 298 298 299 299 299 299 298 298 298 299 300 301 301 302 302 302 302 303 304 304 305 306 306 308 309 309
305 306 306 306 306 306 305 305 305 305 304 304 304 304 303 303 303 303 303 302 302 301 301 301 301 300 300 300 300 301 300 299 300 299 299 299 299 299 299 299 299 299 299 299 298 298 298 298 298 298 298 298 298 298 298 299 299 299 299 299 299 299 299 299 299 299 299 299 299 299 300 300 301 301 302 302 302 302 302 303 303 304 305 306 307 308
304 305 305 305 305 305 305 305 304 304 304 304 303 303 302 302 301 301 300 300 300 300 300 300 299 300 299 299 299 300 300 299 299 299 299 299 299 299 299 299 299 299 299 298 298 298 298 298 298 298 298 298 298 298 298 298 298 298 298 298 298 298 298 298 298 298 299 299 299 299 299 300 299 300 300 301 302 302 302 302 303 303 304 305 305 306
304 303 303 304 305 305 305 304 304 304 303 303 303 303 302 302 301 301 300 300 300 300 299 299 299 299 299 299 299 299 299 299 299 299 299 299 298 299 298 298 298 299 299 298 298 298 298 298 298 298 298 298 298 298 298 298 298 298 298 298 298 298 298 298 298 298 298 298 298 298 299 299 299 299 299 300 300 301 302 302 302 302 303 303 304 304
303 303 303 303 303 303 304 304 304 303 303 303 303 302 302 302 301 301 301 301 300 300 300 300 299 298 298 298 298 299 299 299 298 298 298 298 298 298 298 298 298 298 298 298 298 298 298 298 298 298 298 298 298 298 298 298 298 298 298 298 298 298 298 297 297 297 297 298 298 298 298 298 298 299 299 299 299 300 301 301 302 302 301 302 302 303
303 303 303 303 302 303 303 303 303 303 302 302 302 302 301 301 301 301 301 300 300 299 299 300 300 299 299 298 298 298 298 298 298 298 298 298 298 298 298 298 298 298 298 298 298 298 298 298 297 297 298 298 298 298 298 298 298 298 298 297 297 297 297 297 297 297 297 297 297 297 297 297 297 298 298 299 299 299 300 300 301 301 301 301 301 302
Wind_Speed
12 8 9 8 9 11 12 15 12 7 9 8 9 10 13 11 9 14 10 10 10 10 13 16 14 15 16 14 12 14 15 14 15 15 14 15 15 16 17 18 17 15 16 16 15 15 14 14 13 13 14 16 15 16 18 20 22 20 20 19 19 19 19 18 17 16 16 14 12 12 10 9 9 8 8 8 7 6 5 4 3 3 2 2 1 0
10 8 9 11 12 10 11 14 10 5 8 7 8 7 10 11 8 14 11 10 9 8 9 13 15 15 13 14 13 14 13 13 15 15 15 17 16 16 17 18 16 14 14 16 15 15 15 14 13 13 15 16 17 18 19 21 21 20 19 19 19 20 20 20 19 18 17 14 13 12 10 10 10 9 8 7 6 6 5 5 6 6 5 4 3 2
8 8 11 12 9 5 4 7 7 6 8 9 8 7 7 8 8 11 9 7 7 7 8 12 13 12 12 15 13 12 11 12 16 16 16 18 16 16 16 18 17 14 16 18 16 15 15 14 14 14 15 17 18 19 21 21 21 21 21 21 21 21 22 22 21 19 17 13 12 12 11 10 10 9 9 8 7 6 5 6 6 7 7 5 4 2
7 9 14 12 6 4 4 5 6 7 8 9 8 8 7 8 10 8 8 8 8 7 9 11 10 10 11 13 10 11 12 12 15 17 17 18 17 16 16 18 19 18 20 20 16 15 15 15 15 15 15 18 18 20 22 22 21 22 21 21 22 22 23 23 21 18 14 12 12 13 12 11 11 11 11 10 9 7 6 7 6 6 7 6 5 4
8 7 10 9 7 8 10 8 9 8 7 10 11 11 9 10 12 6 5 8 8 8 10 10 7 9 10 12 10 10 12 12 14 17 17 18 17 14 15 17 18 19 20 19 16 16 18 20 19 15 16 18 19 20 23 23 21 22 22 21 21 21 21 21 20 16 14 15 15 16 15 14 14 13 12 10 9 8 6 6 5 5 6 5 5 5
10 4 6 6 7 10 11 9 11 10 8 10 12 14 13 11 11 7 7 7 6 8 11 10 8 8 10 13 12 10 10 11 12 14 16 19 18 15 14 16 16 16 17 16 17 18 21 23 20 18 17 18 20 21 22 23 20 21 22 20 19 19 18 19 19 16 16 18 17 17 17 16 15 13 11 9 9 8 7 6 5 5 6 5 5 5
7 7 7 8 8 11 12 10 12 12 9 8 11 16 17 13 11 9 9 8 7 5 8 13 10 6 9 13 14 13 12 13 13 13 16 18 19 17 15 15 15 15 15 13 17 20 24 24 21 21 20 18 20 20 21 23 20 19 19 19 19 19 18 18 18 17 17 16 16 16 15 14 13 12 11 10 10 9 8 8 7 7 6 6 6 6
7 6 7 9 10 11 10 9 11 13 11 8 7 14 16 14 11 9 8 8 7 3 5 12 11 8 6 9 13 15 14 16 16 14 15 17 18 17 16 15 15 16 15 15 18 21 25 25 23 22 20 17 18 19 20 21 19 15 15 16 17 18 19 18 17 16 16 14 14 14 12 11 11 11 12 12 11 10 10 9 7 7 7 6 6 6
9 10 8 10 10 8 9 10 11 14 12 7 4 10 13 14 12 10 10 9 7 5 5 10 12 8 5 7 12 15 14 16 17 15 14 14 16 16 16 14 13 13 14 16 19 21 23 26 24 21 19 15 15 17 18 18 17 15 12 11 12 16 19 18 15 14 14 13 12 12 11 11 11 12 12 11 11 12 11 10 8 8 8 8 8 7
5 11 11 11 11 8 11 11 10 14 12 4 4 9 10 12 13 10 10 8 7 7 7 9 11 8 5 7 10 11 12 14 13 13 12 11 14 14 15 15 15 17 18 20 21 20 21 23 21 15 13 12 13 15 16 16 16 16 13 11 11 14 16 16 14 13 13 13 12 11 11 12 13 13 12 11 12 12 11 11 10 8 8 8 8 7
1 5 7 10 12 7 5 4 5 11 12 3 4 9 8 8 9 8 8 7 6 7 9 10 11 10 6 7 9 9 10 10 8 7 9 11 14 14 15 16 17 19 19 20 21 19 19 18 14 11 9 11 14 15 16 17 17 18 15 13 12 13 14 16 15 12 12 14 12 10 11 12 13 13 12 12 12 12 11 11 10 9 9 8 8 7
5 7 6 10 14 6 1 4 5 10 11 6 6 9 8 7 7 7 7 6 6 7 9 10 11 11 7 4 7 11 10 7 8 9 9 10 13 14 13 14 16 16 13 13 16 17 19 17 13 11 9 11 15 15 16 18 19 20 18 16 15 15 17 18 18 14 12 14 14 11 10 11 12 12 12 12 11 12 11 11 10 10 9 9 8 7
9 9 9 12 13 9 7 7 8 8 9 8 8 9 7 6 6 7 7 6 7 6 6 8 10 10 6 2 4 7 8 5 5 8 8 9 13 15 13 14 16 14 12 10 10 12 14 16 18 19 15 15 17 16 16 18 19 20 20 16 15 17 18 19 21 18 15 15 15 13 11 11 12 11 11 11 11 11 11 11 11 11 10 10 9 8
7 9 13 13 10 11 11 8 7 8 9 10 9 8 7 6 6 7 7 7 8 6 5 6 6 7 7 6 9 7 6 4 4 6 7 10 14 16 16 17 15 13 12 9 9 7 9 18 26 24 19 20 22 21 21 21 18 17 19 17 16 17 18 20 23 21 18 16 15 15 13 12 12 11 11 11 11 11 11 11 11 11 11 10 10 10
9 8 12 12 9 12 14 12 7 6 9 10 10 8 7 6 5 6 6 5 6 6 7 7 5 6 6 5 9 10 11 9 5 4 6 8 12 15 17 18 14 11 11 8 7 6 10 16 22 21 24 28 28 24 22 21 18 17 18 17 15 16 19 22 24 23 21 17 15 15 14 12 11 12 11 10 10 11 11 11 11 12 12 11 11 11
10 7 11 16 12 12 15 14 11 8 8 9 9 9 8 7 6 4 2 1 2 4 5 7 4 3 3 3 5 8 13 15 13 11 10 10 12 14 15 16 13 12 12 10 10 13 16 22 26 26 26 26 24 21 19 18 19 18 17 15 14 16 20 22 22 21 20 18 16 15 13 11 11 12 12 11 11 12 12 12 12 12 12 12 11 11
8 6 9 16 14 11 14 14 13 10 6 5 7 9 7 6 6 5 3 3 2 5 4 5 5 4 6 4 3 5 8 12 14 12 10 9 10 12 16 17 15 13 13 12 13 17 22 27 26 23 21 18 19 20 18 17 16 15 15 16 18 20 21 21 19 19 19 18 17 16 14 13 13 12 12 12 12 12 13 13 12 12 12 13 12 12
6 5 6 13 13 13 12 10 11 12 8 5 6 8 6 4 5 5 4 3 5 7 6 6 7 7 6 5 8 11 9 9 10 9 9 8 9 11 14 17 17 17 17 17 18 20 24 24 20 19 17 16 20 23 20 17 14 13 14 16 20 20 19 17 17 17 17 15 16 17 15 14 13 12 11 12 11 12 14 14 12 13 13 13 13 13
6 6 5 10 13 13 11 8 10 10 12 10 5 5 6 5 5 5 4 4 6 7 6 7 8 8 5 4 10 13 10 9 9 8 9 7 8 11 13 17 19 19 20 19 19 21 21 19 17 17 16 16 20 22 21 17 13 13 15 16 16 15 14 13 12 14 14 14 16 17 16 13 13 12 11 11 11 12 14 14 13 14 15 14 14 14
5 5 4 8 10 10 9 8 9 8 11 12 8 6 7 5 4 5 4 5 7 6 6 7 8 5 2 2 7 10 8 9 9 7 8 8 9 12 12 14 17 17 17 17 18 19 18 17 17 16 17 18 17 17 19 17 12 10 13 15 14 13 13 12 10 11 12 14 16 17 16 13 13 13 12 12 12 13 15 15 14 15 16 15 14 14
6 5 4 6 8 7 7 8 11 10 9 10 9 8 8 5 4 5 5 5 6 6 5 7 6 3 5 7 5 9 8 9 9 8 8 9 12 14 14 14 14 14 14 15 17 18 16 14 14 15 17 19 17 17 18 17 14 10 10 12 12 12 13 12 10 10 11 13 16 18 16 13 13 13 13 13 14 15 17 17 16 16 16 14 13 14
5 6 6 6 6 7 7 8 13 13 9 7 9 10 9 8 6 6 7 6 6 6 5 6 3 4 4 6 5 9 8 9 11 10 9 11 14 15 15 14 14 14 14 14 14 13 12 12 14 16 16 18 20 20 18 16 15 12 10 11 10 10 10 10 9 8 9 12 15 18 17 14 13 14 14 14 15 15 17 17 16 17 16 13 12 14
1 3 6 8 8 7 4 3 5 7 8 8 8 9 9 9 7 7 7 6 6 7 6 7 4 3 2 4 3 6 7 9 12 13 12 13 15 15 15 15 14 14 14 14 13 13 13 13 14 14 14 14 17 17 15 15 16 14 12 11 11 11 11 9 8 8 8 10 12 15 16 14 13 14 15 16 15 15 17 17 16 18 17 13 12 13
1 4 7 8 8 7 5 3 4 5 7 9 8 7 8 9 8 8 7 5 6 7 7 7 5 3 3 2 1 6 10 11 13 14 14 14 15 15 15 15 15 15 14 14 14 14 14 14 14 12 11 11 12 11 11 12 15 15 14 12 12 13 13 11 10 9 9 9 10 11 12 13 12 13 15 17 16 15 17 18 16 17 16 13 13 13
3 4 6 7 7 7 8 7 6 7 7 8 9 9 11 11 11 9 6 5 7 7 7 6 3 3 3 1 2 7 10 11 12 14 13 14 15 14 14 15 14 14 14 13 13 14 14 14 13 12 11 11 10 9 9 10 12 12 11 11 11 11 11 11 9 9 8 8 9 10 11 12 12 12 14 16 16 16 16 17 17 16 14 13 13 13
2 1 2 5 5 4 5 4 3 5 6 7 10 10 10 12 13 9 5 6 7 7 9 7 2 5 4 4 6 7 9 10 11 12 12 12 14 13 13 13 13 13 13 13 13 14 14 13 13 13 12 12 11 10 10 11 11 10 10 10 9 9 9 9 9 9 9 8 9 10 11 11 12 12 12 14 16 17 16 16 17 16 14 13 13 13
3 2 2 2 2 1 3 6 9 8 6 9 12 12 9 10 11 9 7 8 6 6 9 6 8 11 8 8 8 7 9 9 8 9 10 12 13 13 13 13 13 12 12 12 12 13 12 12 12 12 12 12 11 10 11 11 10 10 10 9 9 9 8 8 8 8 9 8 8 8 9 9 10 11 12 12 15 17 17 16 16 15 14 12 13 13
3 4 5 4 3 2 4 8 13 13 9 8 7 7 8 8 8 8 8 6 4 4 5 3 13 14 10 10 10 8 8 8 6 8 10 11 12 14 13 13 12 12 12 12 11 12 13 12 11 11 11 11 11 11 11 11 10 10 10 9 8 8 8 8 7 7 6 6 7 6 6 7 7 9 10 11 13 15 16 15 14 14 13 13 13 14
4 5 7 7 8 6 4 7 11 12 9 5 4 3 2 3 6 6 5 3 4 3 2 8 14 12 10 10 10 9 8 7 7 9 11 12 12 13 13 13 13 12 13 13 12 12 14 12 11 10 11 11 12 12 11 10 11 10 9 8 6 6 7 7 7 7 6 5 6 6 5 6 6 7 8 9 11 13 15 15 14 14 16 17 17 15
4 3 7 8 9 8 6 6 6 8 8 6 4 5 5 4 4 3 4 4 4 6 9 13 16 13 9 8 8 8 8 8 9 10 11 12 12 13 14 15 15 14 14 14 13 13 14 14 12 11 11 11 11 11 11 11 11 11 10 10 9 8 8 8 8 8 7 6 5 5 5 5 5 5 6 7 9 10 13 16 16 16 18 19 19 18
3 3 6 6 7 7 8 7 7 7 7 7 5 6 6 5 6 7 7 7 8 11 12 14 16 12 8 8 9 7 8 9 10 11 12 11 12 14 14 16 17 16 15 15 15 15 16 15 14 14 13 11 10 10 10 10 10 10 9 9 8 7 7 8 9 8 7 7 6 5 5 4 4 4 5 5 5 7 9 11 13 15 18 20 19 20
5 3 4 6 7 5 7 8 8 8 7 9 8 6 5 4 6 6 6 7 6 9 11 11 10 8 8 10 11 10 10 12 13 13 12 11 11 13 14 15 16 16 17 17 17 17 17 16 16 15 14 13 12 11 11 10 9 9 9 8 7 6 6 7 8 8 7 6 6 5 4 3 3 3 3 3 3 5 6 8 9 11 14 16 17 18
5 5 4 6 6 6 7 9 7 6 7 7 8 6 2 3 5 5 7 9 9 4 6 6 7 9 11 12 10 10 12 14 16 16 14 15 16 17 18 18 17 17 17 17 17 17 17 17 16 15 14 13 13 12 11 10 10 10 10 10 8 7 7 8 8 7 7 6 5 5 4 3 2 1 1 2 3 4 5 7 8 8 9 12 15 18
3 4 4 3 4 5 6 7 7 7 7 3 1 0 2 5 5 5 6 7 8 7 6 8 11 12 12 11 11 11 12 14 17 19 18 19 21 22 21 19 19 18 17 15 17 18 18 18 16 15 15 14 13 12 11 10 10 10 9 9 8 7 7 8 8 8 8 7 6 5 4 4 3 2 1 1 2 4 5 6 7 8 9 12 13 16
3 4 3 2 2 2 1 4 6 7 3 1 3 1 2 5 9 10 8 6 7 9 10 12 12 13 13 14 16 17 18 19 20 21 21 21 20 21 21 19 17 16 16 16 16 18 18 18 17 16 15 15 13 12 11 11 10 8 8 8 7 7 7 8 7 7 7 6 5 5 4 4 2 2 1 1 2 3 5 6 7 9 10 10 11 12
5 6 4 3 4 2 2 5 5 2 2 3 2 2 3 7 10 9 7 6 6 8 11 12 12 14 17 19 20 21 23 24 23 21 20 19 19 19 19 18 16 15 15 15 14 15 15 15 15 15 15 14 14 13 13 12 10 8 7 7 6 6 7 7 7 6 5 5 4 3 3 2 2 2 2 2 2 3 4 6 8 8 9 9 10 11
4 4 3 5 6 5 5 5 3 2 3 3 3 3 3 3 2 1 4 6 4 6 11 12 12 14 17 19 21 22 23 22 18 15 15 15 15 16 16 14 13 12 12 13 13 12 11 9 10 10 10 9 10 11 12 12 11 9 7 7 7 7 7 6 6 6 5 4 4 3 3 3 3 3 3 4 4 4 5 6 7 8 8 9 9 10
5 2 3 6 5 5 6 6 4 3 4 2 4 3 2 3 5 5 4 6 3 5 11 13 13 15 16 18 20 21 18 14 10 9 12 13 13 14 13 12 11 10 10 12 12 11 10 8 6 6 6 6 6 6 7 8 10 9 8 8 8 7 6 5 5 5 4 4 4 4 4 4 4 4 4 5 6 6 6 7 8 8 9 9 9 10
4 3 4 7 6 5 6 7 5 3 1 2 4 4 3 2 4 4 2 5 3 6 11 13 13 15 16 17 18 16 9 5 7 9 12 12 12 11 11 10 10 9 9 9 9 9 9 8 8 6 6 7 8 9 8 8 9 9 8 8 8 7 6 4 4 5 5 5 5 5 5 5 5 6 6 6 6 7 7 8 9 9 10 10 10 10
4 4 6 7 7 6 6 7 3 2 3 3 3 4 4 4 3 4 5 5 5 7 10 12 13 13 14 15 14 7 2 4 9 13 13 12 11 9 9 8 7 7 7 6 7 7 7 6 6 6 6 7 10 11 11 10 10 10 9 9 8 7 6 6 6 7 7 7 7 7 7 7 7 7 7 7 7 7 8 8 9 9 10 10 11 11
3 4 5 6 7 5 5 5 2 4 4 3 4 5 6 4 2 3 2 6 8 9 10 10 10 9 10 10 8 9 12 12 14 15 13 11 10 8 7 7 6 6 6 6 8 8 7 6 6 6 8 10 12 13 13 13 13 13 11 10 9 8 8 9 9 9 11 11 10 9 9 8 8 8 10 10 10 10 10 9 10 10 11 11 12 12
2 3 5 6 6 5 4 5 2 3 4 5 4 4 7 5 2 2 5 10 11 11 12 11 10 9 9 10 13 15 16 15 14 13 11 10 8 7 6 5 6 6 6 7 8 8 8 7 6 8 10 11 12 13 14 15 15 15 14 12 10 9 10 11 11 13 15 14 12 12 12 13 14 15 16 16 14 14 13 12 12 12 13 13 14 15
3 3 5 2 2 4 4 4 2 2 3 4 1 2 5 3 3 6 8 11 11 11 12 11 10 10 10 12 14 14 14 13 11 10 10 9 7 7 6 5 5 5 5 6 6 7 8 7 6 8 10 11 12 13 14 15 15 15 15 14 13 14 15 15 15 16 16 16 16 17 18 19 19 20 20 20 19 19 17 16 15 15 15 16 17 17
4 4 4 3 4 4 3 1 1 2 4 3 3 4 6 7 9 9 9 11 11 11 10 10 9 9 9 10 11 11 11 11 9 8 8 7 7 6 5 5 5 5 6 6 5 7 8 7 7 9 9 10 12 13 14 14 14 15 16 15 16 18 19 18 17 17 17 18 19 21 21 20 20 19 19 20 21 21 20 19 19 18 19 19 19 19
4 4 3 4 5 4 4 4 3 4 7 8 8 9 9 9 9 9 9 10 9 9 10 10 9 8 8 8 8 9 10 9 8 8 7 6 6 5 5 6 6 6 6 6 5 8 9 7 7 8 8 9 11 11 11 11 11 13 14 14 16 17 18 18 18 19 19 20 19 19 20 19 20 20 19 19 20 20 21 22 21 22 23 22 22 23
5 3 3 3 6 7 7 7 6 7 9 10 11 11 10 9 8 9 11 12 12 11 10 9 8 8 8 7 8 9 8 7 7 6 6 5 5 5 5 6 6 6 6 5 6 8 8 7 6 7 8 9 9 9 9 9 10 11 12 13 14 15 15 15 16 18 20 20 21 21 20 19 20 20 20 21 21 22 22 23 24 24 26 26 27 27
3 2 1 2 4 4 4 6 7 8 9 10 11 11 11 10 10 11 12 12 10 10 10 9 7 8 9 9 8 8 7 7 6 6 5 5 4 5 5 5 5 6 6 6 7 8 7 7 7 8 8 9 9 9 9 9 10 11 12 12 13 13 14 14 15 16 17 18 19 19 19 19 20 20 20 20 21 22 23 24 25 26 27 28 30 29
3 2 1 1 1 2 5 8 9 9 9 9 9 10 10 10 10 11 11 10 9 8 8 7 7 7 8 8 8 7 7 6 6 5 5 4 4 5 5 5 6 6 7 7 8 8 8 7 8 8 9 9 9 9 10 11 11 12 12 13 14 14 15 15 16 17 17 17 18 18 18 19 20 21 21 21 21 22 23 23 24 25 26 28 30 31
2 2 1 1 3 5 7 10 11 9 9 8 8 8 9 9 10 11 10 9 9 8 7 7 7 8 7 7 7 6 5 6 6 6 5 4 4 5 5 6 6 6 7 7 7 7 8 7 8 8 9 9 9 10 11 12 13 13 14 15 15 15 16 16 16 17 18 18 19 19 19 19 20 21 22 22 22 23 24 24 25 25 25 25 27 31
3 2 2 0 3 3 5 9 9 4 5 8 9 9 8 8 8 8 7 7 7 6 6 6 6 7 7 7 6 5 4 5 5 5 5 4 4 4 5 5 5 5 5 5 6 6 7 7 8 8 8 9 9 11 12 13 14 15 15 15 16 15 16 16 17 17 17 17 17 18 18 18 20 21 22 22 23 23 24 25 27 28 28 28 27 28
4 5 4 2 0 3 6 9 5 1 4 10 10 8 7 6 4 3 3 3 4 4 3 3 3 4 4 4 4 4 4 4 5 5 5 4 4 4 4 4 4 3 3 4 5 6 7 8 8 8 8 9 10 12 14 15 16 16 16 15 15 15 15 15 16 16 16 15 15 16 16 17 18 19 21 22 22 23 24 25 26 28 30 31 31 31
Wind_Direction
199 208 218 218 224 211 211 227 232 274 297 272 237 212 221 229 202 222 217 151 185 212 202 217 222 219 230 223 189 183 198 207 217 215 204 201 196 198 187 166 169 178 176 177 185 199 197 190 188 179 175 173 168 158 160 177 182 182 182 182 182 178 178 175 168 164 156 154 165 164 157 151 150 152 146 138 140 145 144 138 143 164 171 161 158 125
207 221 222 218 231 222 208 226 239 290 300 277 263 235 218 231 212 207 198 146 178 225 211 212 227 225 221 232 215 185 191 207 215 212 203 207 202 198 189 166 169 180 176 177 185 192 189 182 178 175 175 171 165 160 165 178 182 185 186 184 183 180 177 170 165 163 157 160 169 159 153 151 148 144 140 139 142 148 149 139 136 140 140 130 135 151
215 229 230 219 221 230 207 226 245 256 254 250 256 255 225 224 222 196 162 137 176 210 228 217 224 229 219 231 222 180 191 214 213 212 208 210 207 199 186 163 166 180 177 178 183 183 177 174 175 177 177 172 165 163 173 183 182 184 185 183 184 181 173 166 167 165 156 165 167 150 150 146 137 136 138 140 134 127 123 119 122 132 129 113 114 121
211 219 226 214 175 193 219 224 241 239 237 242 242 244 235 213 219 203 161 185 199 200 241 237 225 229 223 226 212 177 197 213 212 215 210 210 211 201 184 165 169 182 179 176 177 174 172 182 186 183 176 170 164 167 179 187 185 186 184 181 182 178 172 167 166 162 153 165 161 143 145 144 143 148 144 138 128 120 118 113 120 136 130 119 118 106
233 206 204 193 151 194 221 214 223 232 223 227 235 240 240 217 217 218 170 193 199 200 238 252 239 228 215 210 204 188 200 208 209 212 208 207 210 200 182 170 169 179 182 175 168 162 173 191 195 191 183 173 167 167 179 188 188 187 186 184 180 173 172 169 165 166 162 165 162 152 153 151 151 147 137 133 127 124 124 119 128 134 125 122 116 100
241 156 148 188 177 202 219 211 211 224 227 220 224 238 251 242 221 193 155 183 212 206 212 224 238 230 200 202 210 195 194 204 204 208 208 206 204 193 177 168 165 179 188 178 162 164 181 192 194 197 192 180 172 165 172 182 182 185 190 189 180 171 170 170 174 179 169 164 162 156 153 148 145 139 136 141 134 130 133 133 135 126 122 123 113 100
232 151 165 214 210 209 217 219 210 210 234 233 204 219 245 258 240 208 180 198 229 222 193 203 231 241 195 201 208 193 191 204 203 205 209 205 201 192 176 165 166 182 193 176 162 176 191 191 191 199 199 188 177 163 162 173 176 183 189 187 183 176 169 171 179 176 163 162 158 152 149 143 142 143 145 147 140 140 143 142 140 131 123 117 112 107
222 184 186 206 209 214 216 223 209 200 228 249 189 195 223 241 242 230 220 221 231 246 194 203 228 247 208 199 197 186 191 203 201 203 208 206 201 189 170 164 174 186 185 170 172 191 199 196 195 200 201 191 176 163 160 168 173 177 181 179 174 168 164 167 174 166 156 162 155 147 149 144 146 150 149 147 144 146 143 136 132 125 118 112 111 106
206 215 203 197 208 215 217 223 206 199 223 249 203 193 211 226 226 224 231 236 235 238 222 211 223 236 224 202 188 183 194 202 199 199 203 204 200 182 159 165 186 192 184 178 188 201 203 202 203 200 199 189 170 163 160 162 171 178 187 186 167 165 166 162 165 158 149 156 152 145 150 148 151 153 146 144 144 145 141 134 131 131 130 125 116 106
184 213 204 197 208 214 219 220 189 194 217 230 220 215 213 222 224 223 229 232 230 234 242 224 213 223 222 191 179 179 199 204 194 195 195 191 197 185 163 169 187 195 195 188 190 203 209 211 207 190 184 177 160 155 154 155 168 180 199 205 177 174 174 160 159 159 153 154 147 146 158 156 153 149 144 146 146 144 141 138 138 137 132 125 120 116
65 208 206 204 217 226 216 200 172 207 218 198 218 222 214 219 222 225 232 234 232 231 242 230 211 225 223 176 176 191 209 206 175 184 197 182 186 184 168 172 186 195 195 180 179 198 208 209 195 162 156 165 158 153 154 156 162 168 186 199 184 178 178 168 163 165 163 156 146 153 168 161 153 152 151 152 148 143 141 139 139 135 133 131 127 124
222 207 208 217 230 260 274 188 201 229 229 219 228 219 206 208 208 214 218 225 236 233 237 223 205 220 227 187 189 185 186 191 172 180 193 176 174 172 163 177 192 195 190 175 177 188 197 205 195 167 162 153 147 152 159 161 161 162 170 184 186 182 179 171 167 171 173 161 154 159 166 161 157 157 156 154 150 148 145 143 143 141 140 136 127 124
217 207 198 209 222 234 240 211 189 213 227 221 225 222 212 204 204 218 209 208 231 233 237 219 199 212 219 111 93 129 132 129 136 156 177 183 179 172 171 189 199 193 182 181 189 185 181 175 149 128 120 120 134 158 168 165 167 165 163 167 173 171 170 167 166 172 178 169 162 159 159 164 162 157 158 157 154 152 149 149 149 145 142 137 132 131
206 207 202 205 205 205 229 233 179 187 210 212 219 220 215 204 207 226 216 212 225 213 208 213 198 218 215 125 98 111 129 120 91 122 177 198 186 178 184 191 194 186 171 178 200 182 134 132 129 121 123 136 148 164 170 164 163 162 158 157 160 160 165 170 168 168 174 173 167 163 164 166 162 159 161 159 156 155 155 154 152 148 146 146 145 145
205 207 200 206 195 184 213 241 232 200 196 209 226 226 222 218 214 234 235 230 236 212 191 193 198 226 224 144 128 143 144 145 147 163 191 192 175 176 180 179 177 165 161 184 189 141 103 117 124 127 142 152 156 166 172 164 159 162 160 161 165 161 162 167 166 165 169 170 169 172 168 163 164 165 161 162 163 161 159 156 154 153 154 156 158 162
221 217 195 204 206 187 202 230 246 241 207 202 223 228 225 224 220 233 254 31 319 267 202 185 206 210 158 112 126 141 140 147 162 180 187 177 164 160 151 155 163 153 153 170 145 108 103 112 113 120 135 147 153 162 171 163 157 163 163 161 163 159 158 162 164 165 167 167 171 178 174 168 174 169 162 166 170 164 161 159 159 159 160 164 170 174
228 236 187 192 204 205 207 215 224 238 237 193 215 232 228 227 242 242 209 139 183 262 237 194 213 179 141 139 158 166 158 152 157 164 160 140 127 122 123 136 151 145 139 144 127 113 116 117 112 115 125 139 148 149 154 155 152 153 154 154 157 157 157 161 165 167 166 166 172 179 179 176 177 173 170 172 170 166 164 160 161 162 164 171 175 174
231 249 179 177 197 209 215 231 230 232 246 226 215 233 230 224 257 261 243 195 199 233 235 207 214 207 188 179 175 182 180 152 139 130 112 96 95 101 110 122 134 136 130 124 118 117 122 120 111 107 114 138 151 144 143 146 142 137 138 145 155 158 158 159 164 167 165 167 176 181 182 182 180 178 179 177 171 170 166 161 164 166 168 174 173 170
227 248 208 190 207 203 198 234 243 228 238 250 262 255 238 228 228 231 240 234 220 230 231 214 214 222 228 195 173 180 173 144 130 117 109 104 101 102 106 113 122 127 124 119 115 115 121 126 122 115 113 128 140 139 140 138 131 135 142 147 155 160 159 153 151 159 165 172 182 184 185 188 185 181 184 182 177 174 168 165 169 171 171 173 171 168
218 256 237 206 215 200 184 213 231 217 218 237 263 258 237 242 242 229 231 235 232 231 226 223 216 208 312 325 165 167 156 132 125 121 121 118 110 106 105 110 119 122 121 120 121 120 124 127 128 128 126 126 132 137 138 134 129 137 146 151 159 166 168 162 148 151 167 178 185 185 186 191 188 183 186 187 185 181 175 173 176 177 174 171 169 168
203 226 239 226 224 211 197 209 221 223 212 210 226 234 228 228 226 230 240 245 247 239 226 232 219 151 24 4 100 135 134 123 124 127 126 120 113 107 103 105 112 114 115 121 126 130 132 127 124 127 128 129 132 133 133 136 140 142 137 143 158 169 172 171 161 156 168 181 186 187 186 190 191 188 188 192 191 186 184 181 181 180 173 167 168 168
213 217 228 235 230 222 225 224 220 229 241 224 214 221 228 228 222 229 237 235 243 253 246 242 220 103 25 354 75 122 133 130 132 130 120 114 112 109 106 105 106 107 110 117 124 134 139 134 128 124 124 127 129 132 136 140 147 148 135 135 149 159 162 165 163 161 172 183 188 191 191 192 194 191 189 192 192 189 191 188 185 183 173 166 174 173
309 245 239 235 233 233 245 272 250 247 267 264 242 229 226 227 228 234 241 236 236 248 253 250 235 115 41 337 43 117 129 130 130 126 122 115 110 110 109 105 106 109 111 113 117 124 130 132 132 128 129 133 137 143 148 153 159 160 152 152 154 152 156 163 166 169 177 181 184 191 196 196 197 194 190 191 188 190 198 195 189 188 179 170 176 175
129 230 250 245 242 242 226 242 274 261 259 259 253 245 237 234 231 233 242 248 245 244 242 245 237 156 110 340 45 113 127 139 139 130 124 117 109 110 111 109 108 109 110 111 114 119 123 126 128 130 134 140 146 154 155 155 157 154 157 170 167 153 155 165 173 174 174 175 176 184 194 196 197 196 195 193 188 190 202 202 196 191 185 180 180 177
186 221 249 244 240 240 222 211 221 226 235 243 238 240 246 244 244 249 248 237 243 251 247 246 236 125 102 140 144 132 141 147 136 124 119 116 114 112 109 108 108 107 109 111 112 115 119 121 122 125 130 134 138 143 143 141 140 139 148 162 164 157 158 162 166 166 165 170 177 183 191 195 195 195 197 197 192 190 198 205 203 196 188 187 186 183
168 96 270 255 249 246 240 244 257 244 237 237 235 241 249 244 244 253 252 236 240 245 247 251 178 120 123 136 131 139 151 142 125 123 120 116 114 110 109 111 111 111 112 110 111 114 116 119 122 124 125 126 128 131 135 132 126 128 134 139 148 158 158 152 152 156 160 169 181 186 188 193 194 191 194 199 197 194 195 201 206 203 198 195 194 193
140 117 121 263 272 279 302 329 338 321 273 240 230 231 239 242 245 251 247 245 251 246 250 234 143 134 135 133 130 138 145 133 125 133 128 121 117 114 116 118 115 116 114 110 111 115 117 117 120 125 125 124 124 126 128 129 125 125 128 127 134 145 148 146 147 152 157 165 176 183 183 189 192 189 192 198 199 198 198 201 204 205 205 203 203 203
171 182 154 158 199 245 305 326 338 335 306 263 241 232 234 230 229 236 243 259 282 272 269 132 124 130 135 133 127 123 127 126 130 137 131 128 125 121 122 123 119 117 110 105 110 116 114 110 109 115 118 118 121 121 121 125 123 120 121 124 130 138 141 141 141 146 154 161 165 170 175 184 188 187 191 197 200 201 202 203 204 204 206 207 209 213
227 209 172 179 203 221 267 293 311 324 330 343 20 17 300 224 211 216 227 274 285 246 159 115 113 116 125 125 101 82 93 108 119 132 133 133 131 128 126 121 115 109 102 98 102 109 107 105 105 109 114 117 119 118 116 117 118 116 117 119 119 122 128 130 129 133 138 145 150 153 160 173 183 185 190 197 202 205 206 208 210 212 213 210 208 212
248 198 171 198 218 219 223 230 251 280 304 327 8 25 29 57 85 97 89 73 82 103 117 121 114 105 107 107 86 72 85 97 104 119 129 132 130 127 122 115 108 103 99 97 98 101 101 102 103 103 107 111 110 109 111 111 113 114 111 109 106 106 115 121 120 119 120 126 134 136 141 156 168 175 187 201 208 212 215 219 222 225 227 223 215 212
226 169 158 201 229 218 210 211 212 226 258 278 305 352 11 43 60 59 60 66 92 109 113 112 108 101 97 106 117 123 117 107 101 107 119 125 126 122 116 112 110 107 102 97 96 98 97 96 97 97 99 101 98 101 106 104 106 109 106 105 106 110 118 121 121 121 122 123 121 119 128 141 148 160 180 198 210 219 226 231 232 232 235 235 230 223
203 175 166 210 231 215 197 205 208 198 209 238 255 287 324 15 42 50 52 42 67 123 132 121 111 115 122 124 125 115 98 86 76 79 92 98 109 120 116 108 111 115 111 99 89 87 87 85 85 86 88 90 92 98 102 102 102 106 108 106 104 108 115 113 114 118 115 112 113 115 121 125 125 151 185 197 209 223 228 230 230 231 237 238 236 231
198 182 187 215 235 233 203 196 203 201 206 227 235 236 228 96 78 66 59 39 29 72 143 135 116 121 127 127 117 92 77 71 62 58 62 62 65 78 83 76 76 90 101 94 81 76 76 72 70 70 72 75 78 83 89 93 95 94 96 97 95 100 105 99 96 98 94 91 92 91 90 92 98 119 220 215 217 229 233 230 227 231 237 234 233 234
231 228 212 213 246 254 213 187 204 224 222 234 338 89 132 133 127 90 67 53 40 51 83 98 111 126 131 127 118 98 79 68 60 56 59 62 61 65 69 67 66 74 78 69 62 65 69 69 66 62 59 58 59 63 68 73 78 79 82 87 89 89 89 88 86 83 82 82 78 73 70 67 64 54 10 306 253 248 252 247 237 235 240 240 238 240
194 234 227 185 224 282 148 175 220 237 222 39 23 35 84 122 122 102 86 80 79 92 99 100 110 122 121 116 111 102 90 78 72 70 72 75 75 73 72 70 67 70 70 63 61 66 70 70 68 64 59 51 45 46 50 53 59 69 74 77 80 79 76 80 82 79 76 76 73 70 69 62 51 45 20 324 287 272 268 262 254 251 255 259 254 249
195 208 214 191 181 173 170 197 223 252 90 79 86 135 121 130 133 118 95 87 103 121 117 108 106 109 112 114 112 108 103 93 84 81 83 89 94 93 88 81 73 69 68 66 67 73 77 73 66 63 60 53 45 39 35 33 38 52 65 68 70 72 75 76 75 73 71 68 63 56 46 28 360 347 328 296 287 283 271 263 262 263 264 266 263 259
243 216 224 222 203 198 215 210 183 137 163 152 132 119 100 109 122 107 106 108 118 133 124 119 119 117 119 123 122 123 119 106 93 92 96 95 93 90 88 86 82 74 64 59 56 60 72 75 70 68 63 51 45 41 34 28 28 34 46 54 56 60 70 73 67 61 58 48 38 20 3 349 331 321 306 291 287 281 271 263 260 259 257 257 255 255
284 266 252 246 223 213 234 233 205 204 219 162 107 78 39 33 5 356 92 114 122 150 137 131 131 130 130 132 135 139 132 112 101 114 119 112 101 94 88 81 75 66 55 53 50 42 38 36 42 50 38 16 7 12 20 22 20 19 23 32 38 42 52 58 49 37 28 16 8 360 348 334 323 315 303 294 290 282 273 267 262 257 252 247 243 242
270 256 245 250 239 229 251 256 239 219 254 80 88 68 38 29 356 327 174 143 144 156 147 142 142 143 142 143 150 158 159 131 117 123 127 126 115 107 103 93 85 75 61 53 51 47 37 25 22 24 13 354 341 338 344 351 350 351 360 11 15 16 20 21 8 359 354 347 342 337 333 328 319 309 300 294 291 284 275 270 267 259 248 244 241 234
253 256 248 252 253 245 248 262 263 92 69 48 53 41 18 9 334 257 211 168 145 149 149 146 146 146 147 154 157 150 73 91 123 125 126 123 111 99 92 85 77 73 63 43 28 34 36 21 13 14 360 342 334 332 334 334 330 330 337 340 340 345 343 332 330 330 326 324 323 319 316 314 308 304 297 289 286 284 277 270 265 255 242 238 237 230
235 254 256 257 260 252 244 258 265 93 76 29 23 4 345 337 257 226 167 125 126 132 134 134 136 142 149 150 132 89 74 87 109 116 115 111 104 92 81 71 56 50 45 22 5 6 14 9 354 344 336 329 326 325 324 321 319 320 322 323 325 327 319 313 313 305 298 301 304 301 295 291 290 290 284 278 275 276 274 267 260 253 243 237 234 234
263 271 257 252 257 259 264 265 232 103 48 17 41 11 339 323 215 129 102 120 127 125 126 125 121 126 123 99 86 91 95 96 101 105 102 96 90 82 71 58 47 38 25 17 5 349 352 3 351 331 326 322 319 317 314 312 311 310 309 310 312 309 304 302 297 291 292 294 290 284 280 277 277 277 275 273 270 267 265 263 259 253 246 241 238 238
2 299 259 268 311 270 259 260 237 104 28 354 60 49 2 10 120 111 111 124 124 119 122 122 118 121 117 100 95 100 102 96 93 93 88 83 79 76 68 53 48 37 17 21 11 340 345 3 342 323 324 320 314 310 306 305 305 302 300 300 298 292 289 290 290 291 292 288 281 278 277 276 275 275 274 272 269 264 261 260 257 253 248 245 242 239
19 316 282 32 14 299 276 306 352 77 63 40 66 83 76 96 123 133 129 128 129 127 120 112 110 116 117 113 108 103 97 91 85 77 75 73 66 63 56 44 40 30 18 22 3 336 347 358 337 328 332 326 318 313 307 305 302 297 295 294 290 286 284 285 287 287 286 284 283 283 282 279 276 272 270 269 267 264 260 256 254 252 249 245 243 240
36 18 15 53 44 19 45 78 94 87 75 70 79 95 99 104 121 135 127 114 113 117 118 114 110 106 105 108 104 92 83 77 70 67 67 65 60 54 44 37 32 21 18 21 359 343 350 354 343 340 342 336 331 326 320 316 311 305 303 300 296 294 293 291 288 284 282 281 281 281 281 279 276 271 267 264 262 260 258 255 252 250 248 245 243 241
64 52 33 82 103 89 75 86 103 99 86 81 84 90 93 95 96 92 88 81 72 71 88 102 99 85 79 81 83 80 75 72 69 66 62 55 48 40 34 34 29 20 19 18 0 354 358 357 348 346 341 337 338 336 333 331 326 321 319 317 314 312 310 307 302 297 292 287 282 280 278 278 276 274 270 266 262 259 257 255 252 249 248 246 244 242
72 18 2 134 150 139 103 101 111 113 108 101 96 93 92 93 87 76 76 80 75 70 76 79 76 72 66 65 72 76 72 67 63 56 52 48 41 36 32 28 25 19 19 16 5 3 5 1 355 352 349 346 345 341 338 335 329 323 320 318 316 313 309 307 305 302 300 297 294 290 285 281 276 273 270 269 266 262 259 255 253 250 248 246 245 243
42 332 284 112 119 125 121 122 123 121 119 118 114 109 105 102 97 89 86 89 87 83 82 76 69 70 68 67 72 76 71 65 55 43 37 33 31 30 23 19 19 17 16 15 12 13 16 13 8 5 0 356 353 347 344 339 332 326 321 317 313 310 306 303 300 297 296 296 295 294 291 286 280 275 274 272 268 264 261 257 254 252 250 249 247 246
319 273 288 70 106 113 124 136 137 130 129 129 119 113 114 110 103 100 97 92 85 79 79 75 69 72 76 76 75 75 71 60 46 33 27 25 23 21 16 14 16 15 15 16 17 22 24 18 11 6 2 357 353 348 345 339 332 326 321 315 310 305 300 297 296 295 295 294 292 291 290 287 285 282 279 276 272 267 263 258 254 253 254 254 254 252
289 300 345 200 171 142 140 149 147 134 140 140 128 119 118 113 107 106 102 94 84 69 61 68 75 79 78 75 72 69 64 52 36 25 21 18 14 14 15 13 12 10 13 17 20 21 17 8 3 3 358 353 350 347 342 337 331 327 321 314 309 304 299 297 296 295 294 293 292 290 288 288 286 280 273 273 274 272 268 263 257 253 251 250 250 252
355 4 9 348 49 73 121 145 147 35 126 136 133 128 126 119 114 112 93 75 71 58 41 55 83 86 78 73 69 61 47 30 14 10 9 4 3 8 6 4 6 6 9 17 15 8 3 0 359 358 354 351 348 343 339 335 332 329 324 318 312 307 302 300 298 296 295 294 292 290 288 289 289 284 276 274 276 275 273 271 266 260 256 252 249 247